Find Starlink 31083

NORAD ID: 58670 Int'l Des: 2023-211 Owner: SPXS Country: US Constellation: starlink operational
LEOCIRCULAR

实时位置

正在加载3D地球...

关于 Starlink 31083

正在加载描述...

即将过境

Passes for default location (London). Set your location on the main map for personalized predictions.

高度历史

Loading altitude history...

两行轨道根数

1 58670U 23211D 26132.86608716 .00000751 00000-0 36792-4 0 9995
2 58670 43.0024 82.4957 0001043 270.8474 89.2259 15.27579432132282
Epoch: May 12, 2026 • Age: 5 hours

当前状态

高度 486.9 km
速度 7.63 km/s
星下点 43.12°N, 90.63°W
发射日期 Dec 29, 2023
运行时间 2.3 years
类型 internet

技术详情

分类 Payload
质量 730.00 kg
干质量 700.00 kg
总质量 730.00 kg
长度 0.30 m
直径 4.10 m
跨度 29.00 m
形状 Box + pan
制造商 SPXS
平台类型 Starlink V2M
阶段状态 In Orbit
所有者/国家 SPXS/US

Most Searched